Tracking 20037 objects as of 20-Nov-2019
Live streaming from Space Station
objects crossing your sky now

COSMOS 2323 (GLONASS)

Track COSMOS 2323 (GLONASS) now!
COSMOS 2323 (GLONASS) is classified as:


NORAD ID: 23736
Int'l Code: 1995-068C
Perigee: 19,116.7 km
Apogee: 19,157.2 km
Inclination: 65.9 °
Period: 675.7 minutes
Semi major axis: 25507 km
RCS: 3.8825 m2 (large)
Launch date: December 14, 1995
Source: Commonwealth of Independent States (former USSR) (CIS)
Launch site: TYURATAM MISSILE AND SPACE COMPLEX (TTMTR)
aabbcc
Your satellite tracking list
Your tracking list is empty




NASA's NSSDC Master Catalog

Two Line Element Set (TLE):
1 23736U 95068C   19323.41976519 +.00000013 +00000-0 +00000-0 0  9993
2 23736 065.8908 281.0453 0007929 194.9684 330.3889 02.13103029186022
Source of the keplerian elements: AFSPC